BEIDOU 11

Last updated on Nov. 15, 2019, 4:20 a.m. UTC

1 38091U 12008A   19318.06491347  .00000070  00000-0  00000+0 0  9994
2 38091   1.7059  67.5770 0005728 269.3723 158.0659  1.00275663 28342
UTC
Height (km)
Latitude
Longitude
Inclination
Orbital Period
UTC large
Height (km)
Speed (km/s)
/
Latitude / Longitude
Inclination (degrees)
Orbital Period (minutes)
Azimuth
Elevation
Range (km)
Doppler Factor
iOS Compass Heading
iOS Angle

Next 30 passes for location: Hong Kong

Rise time Rise Azimuth (degrees) Set time Set Azimuth (degrees) Duration Max altitude (degrees)

No matching passes for this satellites